Simultaneous Nadir Overpasses (SNOs) Predictions

Prediction of SNOs over PacNW region [( 10.00, 139.50) to ( 22.70, 165.60)] between AQUA and NPP Satellites:

Table of predicted SNOs over PacNW region for the next 30.0 days since TLE Epoch: 1/23/2022
Index Date (AQUA) Time (AQUA) AQUA Lat,Lon Date (NPP) Time (NPP) NPP Lat,Lon Distance(km) Time Diff (sec)
1 01/30/2022 15:10:32 22.63, 159.93 01/30/2022 15:11:13 23.20, 157.29 277.20 41
2 02/07/2022 15:59:51 22.62, 147.62 02/07/2022 16:01:43 23.29, 144.67 310.39 112
3 02/15/2022 15:10:16 22.60, 160.04 02/15/2022 15:10:47 23.18, 157.38 279.32 31
